Location: Mexico
(19.4000°N, 99.1500°W)
Time: 22:57:04
(UTC-06:00)

ISS - Pass Details

Date: 19 May 2019
Orbit: 407 x 410 km, 51.6° (Epoch: 23 May)

Event Time Altitude Azimuth Distance (km) Brightness Sun altitude
Rises 05:07:32 0° 324° (NW) 2,327 -0.1 -12.2°
Reaches altitude 10° 05:09:37 10° 327° (NNW) 1,466 -1.1 -11.8°
Maximum altitude 05:12:54 69° 51° (NE) 438 -3.5 -11.1°
Drops below altitude 10° 05:16:09 10° 135° (SE) 1,463 -0.7 -10.4°
Sets 05:18:14 0° 138° (SE) 2,321 0.3 -9.9°
